Regional Weather Roundup
Issued by NWS

Home | Current Version | Previous Version | Graphics & Text | Print | Product List | Glossary On
Versions: 1 2 3 4 5 6 7 8 9 10 11 12 13 14 15 16 17 18 19 20 21 22 23 24 25 26 27 28 29 30 31 32 33 34 35 36 37 38 39 40 41 42 43 44 45 46 47 48 49 50
000
ASUS43 KLSX 311707
RWRMO

WEATHER SUMMARY FOR MISSOURI
NATIONAL WEATHER SERVICE SPRINGFIELD MO
1200 PM CDT MON AUG 31 2015

NOTE: "FAIR" INDICATES FEW OR NO CLOUDS BELOW 12,000 FEET WITH NO
       SIGNIFICANT WEATHER AND/OR OBSTRUCTIONS TO VISIBILITY.
       CURRENT SKY AND/OR WEATHER CONDITIONS ARE NOT AVAILABLE FOR
       CHILLICOTHE AND FARMINGTON.

MOZ001>031-035>038-043-044-053-054-311800-
...NORTHERN AND WESTERN MISSOURI...

CITY           SKY/WX    TMP DP  RH WIND       PRES   REMARKS
KANSAS CTY INT MOSUNNY   85  71  63 S8        30.00S HX  90
KANSAS C DTWN  SUNNY     86  71  60 S8        29.99S HX  91
LEE`S SUMMIT   SUNNY     83  69  62 S10       30.02S
ST JOSEPH      MOSUNNY   83  73  72 S5        29.99S
CHILLICOTHE      N/A     85  74  69 S8        30.01S HX  92
KIRKSVILLE     SUNNY     86  69  56 S13       30.03F HX  90

$$
MOZ066>068-077>081-088>096-101>105-311800-
...SOUTHWEST MISSOURI...

CITY           SKY/WX    TMP DP  RH WIND       PRES   REMARKS
SPRINGFIELD    SUNNY     84  69  60 S13       30.07S
JOPLIN         SUNNY     85  69  58 S10       30.04F

$$
MOZ032>034-039>042-045>050-055>058-069>072-311800-
...CENTRAL MISSOURI...

CITY           SKY/WX    TMP DP  RH WIND       PRES   REMARKS
COLUMBIA       SUNNY     85  72  65 SE6       30.05F HX  91
JEFFERSON CITY SUNNY     86  69  56 S9        30.04S HX  90
ROLLA          SUNNY     86  69  56 S9        30.07S HX  90
SEDALIA        SUNNY     87  70  56 S14       30.04F HX  92
WHITEMAN AFB   MOSUNNY   86  70  59 SW13      30.01F HX  90
WARRENSBURG    SUNNY     82  68  61 S9        30.01F
OSAGE BEACH    SUNNY     88  68  51 S7        30.06F HX  91

$$
MOZ051-052-059>065-311800-
...EAST CENTRAL MISSOURI...

CITY           SKY/WX    TMP DP  RH WIND       PRES   REMARKS
ST LOUIS INTL  PTSUNNY   85  70  60 VRB5      30.07F
SPIRIT OF STL  SUNNY     85  73  67 CALM      30.05F HX  91
ST CHARLES     MOSUNNY   86  73  65 SE8       30.05F HX  93

$$
MOZ072>076-082>087-097>100-106>115-311800-
...SOUTH CENTRAL AND SOUTHEAST MISSOURI...

CITY           SKY/WX    TMP DP  RH WIND       PRES   REMARKS
CAPE GIRARDEAU SUNNY     83  71  67 VRB5      30.10F
FARMINGTON     SUNNY     84  72  65 S8        30.12F
POPLAR BLUFF   SUNNY     82  72  71 VRB5      30.09F
WEST PLAINS    SUNNY     83  69  62 S6        30.12F

$$


USA.gov is the U.S. government's official web portal to all federal, state and local government web resources and services.